{"data":{"norad_id":41184,"epoch":"2026-05-25T01:30:51.020064Z","epoch_age_seconds":80270,"freshness":"FRESH","line1":"1 41184U 15081F   26145.06309051  .00000571  00000+0  15705-3 0  9998","line2":"2 41184  47.0007  19.5907 0002464 100.1466 259.9698 14.58863732555575","mean_motion":14.58863732,"eccentricity":0.0002464,"inclination_deg":47.0007,"raan_deg":19.5907,"arg_perigee_deg":100.1466,"mean_anomaly_deg":259.9698,"bstar":0.00015705,"rev_number":55557,"period_min":98.706957230739,"perigee_km":695.10200024359,"apogee_km":698.58855150914,"semimajor_km":7074.9822758764,"source":"CELESTRAK","updated_at":"2026-05-25T13:38:22.866053Z"}}